Location: Antin
(43.3330°N, 0.2804°E)
Time: 17:51:18
(UTC+00:00)

SME Rocket - Pass Details

Date: 13 December 2023
Orbit: 550 x 2645 km, 99.9° (Epoch: 20 February)

Event Time Altitude Azimuth Distance (km) Brightness Sun altitude
Rises 20:20:28 0° 214° (SW) 3,607 7.3 -42.1°
Reaches altitude 10° 20:23:13 10° 231° (SW) 2,926 6.8 -42.6°
Maximum altitude 20:28:17 22° 279° (W) 2,618 6.6 -43.5°
Drops below altitude 10° 20:35:04 10° 326° (NW) 4,048 7.5 -44.8°
Sets 20:39:48 0° 340° (NNW) 5,431 8.2 -45.6°
